Other Surface Observations
Issued by NWS

Home | Current Version | Previous Version | Text Only | Print | Product List | Glossary On
Versions: 1 2 3 4 5 6 7 8 9 10 11 12 13 14 15 16 17 18 19 20 21 22 23 24 25 26 27 28 29 30 31 32 33 34 35 36 37 38 39 40 41 42 43 44 45 46 47 48 49 50
996
SXUS52 KTAE 211618
OSOTAE
OSOTAE
North Florida/South Alabama/Southwest Georgia Weather Roundup
National Weather Service Tallahassee Florida
1100 AM EST TUE FEB 21 2017

Note: "fair" indicates few or no clouds below 12,000 feet with no
significant weather and/or obstructions to visibility.

!FLZ017-115-028-034-025-211700
...North Florida...

CITY           SKY/WX    TMP DP  RH WIND       PRES   REMARKS
TALLAHASSEE    CLOUDY    69  62  78 SE8       30.06R
APALACHICOLA   CLOUDY    70  67  90 SE9       30.04S
PERRY          CLOUDY    71  61  71 SE12      30.08F
CROSS CITY     CLOUDY    72  61  68 SE9       30.09F
JACKSONVILLE   CLOUDY    72  62  71 SE8       30.11F
$$

!FLZ112-006-005-002-011-211700
...Florida Panhandle...

CITY           SKY/WX    TMP DP  RH WIND       PRES   REMARKS
MARIANNA       NOT AVBL
BONIFAY        CLOUDY    67  60  78 SE9G16    30.01F
PANAMA CITY NW CLOUDY    69  60  73 E12       29.99F
TYNDALL AFB    PTSUNNY   71  61  72 SE14      30.00F
TYND DRONE APT CLOUDY    71  64  78 SE15G28   30.00F
DE FUNIAK SPR  LGT RAIN  64  61  88 NW5       30.00R
EGLIN AFB      LGT RAIN  66  64  94 SE8       29.98F FOG
DESTIN         CLOUDY    70  66  87 SE20      29.97F
HURLBURT       LGT RAIN  64  61  88 NW13      29.97S FOG
CRESTVIEW      LGT RAIN  65  63  93 CALM      30.01S
PENSACOLA      RAIN      64  61  90 N3        30.01R FOG
$$

!ALZ063-066-211700
...South Alabama...

CITY           SKY/WX    TMP DP  RH WIND       PRES   REMARKS
DOTHAN         CLOUDY    67  59  75 SE9       30.04F
OZARK CAIRNS   CLOUDY    65  58  77 SE9       29.99F
FT RUCKER HELI CLOUDY    65  58  78 E3        29.99F
RUCKER HELI 3  NOT AVBL
RUCKER HELI 2  CLOUDY    64  58  78 SE8       29.99F
FLORALA APT    LGT RAIN  61  59  93 CALM      30.02F FOG
ANDALUSIA      CLOUDY    64  60  87 E8        30.00S
TROY           CLOUDY    61  60  97 NW3       30.04F
EUFALA         CLOUDY    68  58  70 CALM      30.03F
MOBILE         LGT RAIN  63  61  93 SE10      30.00R FOG
$$

!GAZ120>161-211700
...Southwest and South Central Georgia...

CITY           SKY/WX    TMP DP  RH WIND       PRES   REMARKS
THOMASVILLE    FAIR      70  63  78 S12G22    30.08F
BAINBRIDGE     CLOUDY    70  61  73 SE10      30.05F
MOODY AFB      CLOUDY    67  60  77 SE8       30.09S
VALDOSTA       CLOUDY    67  61  81 SE12      30.10S
MOULTRIE       CLOUDY    68  61  77 SE7       30.08F
BLAKELY        CLOUDY    70  61  73 SE8       30.04F
ALBANY         CLOUDY    70  61  73 SE14      30.09S
TIFTON         FAIR      66  62  86 SE7G16    30.09S
FITZGERALD     FAIR      67  62  83 SE7       30.12S
CORDELE        FAIR      70  61  72 SE8G16    30.11S
AMERICUS       FAIR      66  55  68 SE9       30.10S
HOMERVILLE     FAIR      70  63  78 SE7       30.11F
$$

!GMZ750-755-770-775-211700
...Coastal and Buoy Obs...

STATION/POSITION TIME  TEMP    WIND        PRES    VSBY  WAVE
                       AIR SEA DIR/SP/G                  HT/PER
                 (UTC) (F)     (DEG/KT/KT) (MB)    (MI)  (FT/S)
KEATON BEACH     1600   70     120/  9/ 12 1018.2F
CEDAR KEY        1600   67     130/ 10/ 12 1019.4F
C TOWER          1600   67     150/ 18/ 20 1017.5F
APALACHICOLA BUO 1550   71 70  160/ 14/ 16 1017.2R         2/ 4
PANAMA CITY BUOY 1550   72 70              1015.7F         4/ 5
MOBILE BUOY      NOT AVBL
ORANGE BCH AL BU 1550   63 68   50/ 10/ 10 1015.9R         3/ 5
$$




USA.gov is the U.S. government's official web portal to all federal, state and local government web resources and services.